Weather History for KLXN - October, 2012

Change the Weather History Date:

Tuesday, October 23, 2012

  Actual Average Record
Temperature  
Mean Temperature 54 °F -  
Max Temperature 65 °F 58 °F - (-1)
Min Temperature 41 °F 34 °F - (-1)
Degree Days  
Heating Degree Days 11    
Growing Degree Days 4 (Base 50)    
Moisture  
Dew Point 49 °F    
Average Humidity 85    
Maximum Humidity 97    
Minimum Humidity 60    
Precipitation  
Precipitation 0.00 in - - ()
Sea Level Pressure  
Sea Level Pressure 29.73 in    
Wind  
Wind Speed 4 mph (SE)    
Max Wind Speed 9 mph    
Max Gust Speed -    
Visibility 5 miles    
Events Fog    
Averages and records for this station are not official NWS values.
T = Trace of Precipitation, MM = Missing Value Source: NWS Daily Summary

Daily Weather History Graph

Daily Weather History Graph

Search for Another Location

Airport or City:

Trip Planner

Search our weather history database for the weather conditions in past years. The results will help you decide how hot, cold, wet, or windy it might be!

Date:

Astronomy

Oct. 23, 2012 Rise Set
Actual Time 7:59 AM CDT 6:46 PM CDT
Civil Twilight 7:31 AM CDT 7:14 PM CDT
Nautical Twilight 6:59 AM CDT 7:46 PM CDT
Astronomical Twilight 6:28 AM CDT 8:17 PM CDT
Moon 3:32 PM CDT (10/23) 1:51 AM CDT (10/23)
Length of Visible Light 11h 42m
Length of Day
10h 46m
Waxing Gibbous, 67% of the Moon is Illuminated
Oct 23
Waxing Gibbous
Oct 29
Full
Nov 6
Last Quarter
Nov 13
New
Nov 20
First Quarter

Hourly Weather History & Observations

Time (CDT) Temp. Windchill Dew Point Humidity Pressure Visibility Wind Dir Wind Speed Gust Speed Precip Events Conditions
12:15 AM 49.6 °F - 48.2 °F 95% 29.81 in 2.0 mi SE 3.5 mph - N/A   Overcast
12:35 AM 50.0 °F - 48.6 °F 95% 29.79 in 2.5 mi ESE 9.2 mph - N/A   Overcast
1:15 AM 50.0 °F - 48.4 °F 94% 29.77 in 3.0 mi ESE 4.6 mph - N/A   Overcast
1:35 AM 50.0 °F - 48.2 °F 94% 29.77 in 3.0 mi Calm Calm - N/A   Overcast
1:55 AM 50.0 °F - 48.2 °F 94% 29.76 in 3.0 mi ESE 4.6 mph - N/A   Overcast
2:15 AM 50.0 °F - 48.2 °F 94% 29.75 in 3.0 mi ESE 4.6 mph - N/A   Overcast
2:35 AM 50.5 °F - 48.6 °F 93% 29.76 in 4.0 mi SE 5.8 mph - N/A   Overcast
2:55 AM 50.7 °F - 48.6 °F 92% 29.75 in 4.0 mi ESE 3.5 mph - N/A   Overcast
3:35 AM 50.9 °F - 48.6 °F 92% 29.74 in 4.0 mi ENE 3.5 mph - N/A   Overcast
3:55 AM 50.5 °F - 48.6 °F 93% 29.74 in 4.0 mi East 3.5 mph - N/A   Overcast
4:15 AM 50.5 °F - 48.4 °F 92% 29.73 in 4.0 mi ENE 3.5 mph - N/A   Overcast
4:35 AM 50.4 °F - 48.2 °F 92% 29.72 in 4.0 mi ENE 4.6 mph - N/A   Overcast
5:15 AM 50.7 °F - 48.6 °F 92% 29.71 in 4.0 mi SE 3.5 mph - N/A   Overcast
5:35 AM 50.0 °F - 48.2 °F 94% 29.73 in 1.2 mi SE 4.6 mph - N/A   Overcast
5:55 AM 49.6 °F - 48.4 °F 95% 29.74 in 0.5 mi SSE 4.6 mph - N/A Fog Fog
6:35 AM 49.5 °F - 48.4 °F 96% 29.73 in 0.2 mi SSE 5.8 mph - N/A Fog Fog
6:55 AM 49.1 °F - 48.2 °F 97% 29.73 in 0.2 mi SSE 3.5 mph - N/A Fog Fog
7:15 AM 48.6 °F - 47.7 °F 97% 29.73 in 0.2 mi SSE 5.8 mph - N/A Fog Fog
7:35 AM 48.6 °F - 47.7 °F 97% 29.73 in 0.2 mi South 3.5 mph - N/A Fog Fog
7:55 AM 48.6 °F - 47.7 °F 97% 29.73 in 0.2 mi SSE 4.6 mph - N/A Fog Fog
8:15 AM 48.4 °F - 47.5 °F 97% 29.73 in 0.2 mi SSE 3.5 mph - N/A Fog Fog
8:35 AM 48.4 °F - 47.5 °F 97% 29.73 in 0.2 mi Calm Calm - N/A Fog Fog
8:55 AM 48.6 °F - 47.7 °F 97% 29.73 in 0.5 mi Calm Calm - N/A Fog Fog
9:15 AM 48.7 °F - 48.0 °F 97% 29.73 in 1.2 mi Calm Calm - N/A   Overcast
9:35 AM 49.3 °F - 48.6 °F 97% 29.74 in 4.0 mi West 3.5 mph - N/A   Overcast
9:55 AM 50.0 °F - 49.1 °F 97% 29.73 in 4.0 mi Calm Calm - N/A   Overcast
10:15 AM 50.5 °F - 49.6 °F 97% 29.73 in 5.0 mi SSE 3.5 mph - N/A   Overcast
10:55 AM 52.7 °F - 50.0 °F 91% 29.71 in 5.0 mi SE 4.6 mph - N/A   Overcast
11:15 AM 53.6 °F - 50.4 °F 89% 29.72 in 5.0 mi SSE 4.6 mph - N/A   Overcast
11:35 AM 53.8 °F - 50.5 °F 89% 29.73 in 5.0 mi SE 3.5 mph - N/A   Overcast
11:55 AM 54.5 °F - 51.1 °F 88% 29.73 in 5.0 mi SSW 4.6 mph - N/A   Overcast
12:15 PM 55.0 °F - 51.4 °F 88% 29.72 in 5.0 mi South 4.6 mph - N/A   Overcast
12:35 PM 56.1 °F - 51.8 °F 85% 29.73 in 5.0 mi South 4.6 mph - N/A   Overcast
12:55 PM 56.7 °F - 52.0 °F 84% 29.73 in 7.0 mi SSW 3.5 mph - N/A   Overcast
1:15 PM 57.7 °F - 51.8 °F 81% 29.73 in 7.0 mi WSW 5.8 mph - N/A   Overcast
1:35 PM 58.6 °F - 51.4 °F 77% 29.71 in 10.0 mi WNW 3.5 mph - N/A   Overcast
1:55 PM 59.0 °F - 51.6 °F 76% 29.69 in 10.0 mi SW 3.5 mph - N/A   Overcast
2:15 PM 59.0 °F - 51.3 °F 75% 29.69 in 10.0 mi Calm Calm - N/A   Overcast
2:35 PM 61.2 °F - 51.8 °F 71% 29.69 in 10.0 mi South 4.6 mph - N/A   Mostly Cloudy
2:55 PM 61.5 °F - 51.6 °F 70% 29.70 in 10.0 mi SSW 6.9 mph - N/A   Mostly Cloudy
3:15 PM 62.6 °F - 51.6 °F 67% 29.70 in 10.0 mi SW 6.9 mph - N/A   Scattered Clouds
3:35 PM 63.1 °F - 51.3 °F 65% 29.69 in 10.0 mi SSW 4.6 mph - N/A   Clear
3:55 PM 64.2 °F - 51.4 °F 63% 29.69 in 10.0 mi WSW 4.6 mph - N/A   Clear
4:15 PM 64.4 °F - 51.6 °F 63% 29.69 in 10.0 mi SSW 4.6 mph - N/A   Clear
4:35 PM 64.8 °F - 51.3 °F 62% 29.69 in 10.0 mi SW 4.6 mph - N/A   Clear
4:55 PM 64.8 °F - 51.1 °F 61% 29.70 in 10.0 mi SSW 3.5 mph - N/A   Clear
5:15 PM 65.3 °F - 51.1 °F 60% 29.69 in 10.0 mi Calm Calm - N/A   Clear
5:35 PM 65.3 °F - 50.9 °F 60% 29.71 in 10.0 mi NW 3.5 mph - N/A   Clear
5:55 PM 64.4 °F - 50.9 °F 62% 29.69 in 10.0 mi NE 3.5 mph - N/A   Clear
6:15 PM 63.5 °F - 51.1 °F 64% 29.71 in 10.0 mi Calm Calm - N/A   Clear
6:35 PM 61.2 °F - 49.8 °F 66% 29.73 in 7.0 mi North 3.5 mph - N/A   Clear
6:55 PM 58.6 °F - 49.5 °F 72% 29.72 in 7.0 mi NE 5.8 mph - N/A   Clear
7:15 PM 55.4 °F - 48.2 °F 77% 29.73 in 7.0 mi East 4.6 mph - N/A   Clear
7:35 PM 54.5 °F - 47.7 °F 78% 29.74 in 7.0 mi East 5.8 mph - N/A   Clear
7:55 PM 52.7 °F - 47.3 °F 82% 29.74 in 7.0 mi East 5.8 mph - N/A   Clear
8:15 PM 52.7 °F - 48.2 °F 85% 29.74 in 7.0 mi East 5.8 mph - N/A   Clear
8:35 PM 50.7 °F - 46.9 °F 87% 29.74 in 7.0 mi East 6.9 mph - N/A   Clear
8:55 PM 50.9 °F - 47.5 °F 88% 29.74 in 7.0 mi ESE 6.9 mph - N/A   Clear
9:15 PM 53.6 °F - 49.6 °F 86% 29.75 in 7.0 mi SE 6.9 mph - N/A   Clear
9:35 PM 52.7 °F - 49.3 °F 88% 29.75 in 7.0 mi ESE 6.9 mph - N/A   Clear
9:55 PM 51.1 °F - 48.2 °F 90% 29.76 in 7.0 mi SE 5.8 mph - N/A   Clear
10:15 PM 50.9 °F - 48.2 °F 90% 29.76 in 7.0 mi SE 4.6 mph - N/A   Clear
10:35 PM 49.5 °F - 47.5 °F 93% 29.75 in 4.0 mi East 3.5 mph - N/A   Clear
10:55 PM 45.9 °F 42.3 °F 44.2 °F 94% 29.76 in 3.0 mi ENE 6.9 mph - N/A   Clear
11:15 PM 45.5 °F 43.2 °F 43.9 °F 94% 29.76 in 3.0 mi ENE 4.6 mph - N/A   Clear
11:35 PM 43.2 °F - 41.9 °F 95% 29.77 in 2.5 mi Calm Calm - N/A   Clear
11:55 PM 41.9 °F 37.5 °F 40.6 °F 95% 29.77 in 2.5 mi North 6.9 mph - N/A   Clear